Location: Minneapolis
(44.9800°N, 93.2640°W)
Time: 16:29:15
(UTC-05:00)

OTV 5 (USA 277) - Visible Passes

Search period start: 21 October 2017 00:00
Search period end: 31 October 2017 00:00
Orbit: 404 x 417 km, 43.0° (Epoch: 07 September)

Date Brightness Start Highest point End Pass type
(mag) Time Alt. Az. Time Alt. Az. Time Alt. Az.
21 Oct ? 19:03:23 10° W 19:06:30 34° SSW 19:09:36 10° SE visible
22 Oct ? 19:50:23 10° WSW 19:52:18 14° SSW 19:54:14 10° S visible
23 Oct ? 18:58:52 10° WSW 19:01:25 20° SSW 19:03:57 10° SSE visible
